HAWK-7C

Last updated on Fri Dec 29 2023 00:03:29 GMT+0000 (Coordinated Universal Time)

1 56200U 23054Y 23362.28766148 .00005666 00000+0 29656-3 0 9998 2 56200 97.3817 253.1107 0010093 38.0999 322.0946 15.16176803 39657
UTC large
Height (km)
Speed (km/s)
/
Latitude / Longitude
Inclination (degrees)
Orbital Period (minutes)
Azimuth
Elevation
Range (km)
Doppler Factor

Next 0 passes for location: London (51.5072 / 0.1276)

Sorry there are no passes over London.